SCP
0 0 0 0 0 0 0 0 -0 -0 -0 0 -0 0 0 -0 0 -0 -0 -0 -0 -0 -0 0 0 0 0 0 0 0 -0 0 0 -0 -0 0 0 0 0 -0 0 0 0 0 0 0 0
0 0 0 0 0 0 0 0 0 -0 0 -0 0 0 -0 -0 -0 -0 -0 -0 -0 -0 -0 -0 -0 0 0 0 0 0 0 0 0 -0 -0 -0 0 -0 -0 -0 0 0 0 0 0 0 0
0 0 0 0 0 0 0 0 0 -0 0 0 0 -0 0 -0 -0 -0 -0 -0 -0 -0 -0 -0 -0 0 -0 -0 0 0 0 0 0 -0 0 -0 0 0 0 0 0 0 0 0 0 0 0
0 0 0 0 0 0 0 0 0 0 0 0 0 -0 0 0 -0 -0 -0 -0 -0 -0 -0 -0 -0 -0 0 0 0 0 -0 0 0 0 0 0 0 -0 -0 -0 0 0 0 0 0 0 0
0 0 0 0 0 0 0 -0 0 0 0 0 -0 -0 -0 -0 -0 -0 -0 -0 -0 -0 -0 -0 -0 0 0 0 -0 0 0 0 0 0 0 0 0 0 0 0 -0 0 0 0 -0 0 0
0 0 0 0 0 0 0 -0 0 0 -0 -0 -0 -0 -0 -0 -0 -0 -0 -0 0 -0 0 -0 -0 -0 -0 0 0 0 0 -0 0 0 0 0 0 0 0 -0 -0 0 0 0 0 0 0
-0 -0 -0 -0 0 0 0 0 0 -0 -0 -0 -0 -0 -0 -0 -0 -0 -0 0 0 0 0 -0 0 -0 0 0 0 -0 0 -0 -0 -0 -0 0 0 0 -0 -0 0 0 0 0 0 0 0
-0 -0 -0 -0 -0 -0 -0 -0 0 -0 -0 -0 -0 -0 -0 -0 -0 -0 -0 0 0 -0 -0 0 -0 -0 0 -0 -0 0 0 -0 -0 -0 -0 0 0 -0 0 0 0 0 0 0 0 0 0
-0 -0 -0 -0 -0 -0 -0 -0 0 -0 -0 -0 -0 -0 -0 -0 -0 -0 -0 0 -0 -0 -0 0 0 0 0 -0 -0 0 0 -0 -0 -0 -0 0 -0 0 0 0 0 0 0 0 0 0 0
-0 -0 -0 -0 -0 -0 -0 -0 -0 0 -0 -0 -0 -0 -0 -0 -0 -0 -0 -0 0 -0 -0 0 0 0 0 -0 -0 0 0 -0 -0 -0 0 0 0 0 0 0 0 0 0 0 0 0 0
-0 -0 -0 -0 -0 -0 -0 -0 -0 -0 -0 -0 -0 -0 0 0 -0 0 -0 -0 -0 -0 -0 0 0 -0 -0 -0 0 0 0 -0 -0 -0 0 0 0 0 0 -0 0 0 0 0 0 0 0
-0 -0 -0 -0 -0 -0 -0 -0 -0 -0 -0 -0 0 0 0 0 0 0 -0 -0 -0 0 0 0 0 -0 0 0 0 0 0 0 -0 0 -0 0 0 0 0 0 0 0 0 -0 0 0 0
-0 -0 -0 -0 -0 -0 -0 -0 -0 -0 0 0 0 0 -0 -0 0 -0 -0 0 0 -0 0 0 0 0 0 0 0 0 0 0 0 0 0 0 0 -0 0 0 0 0 0 0 0 0 0
-0 -0 -0 -0 -0 -0 -0 -0 -0 -0 0 0 0 0 -0 -0 -0 -0 -0 0 0 0 -0 0 0 0 0 0 0 0 0 0 0 0 0 0 0 0 0 0 0 0 0 0 0 0 0
-0 -0 -0 -0 -0 -0 -0 -0 -0 -0 -0 -0 0 -0 0 0 0 0 -0 -0 -0 0 0 0 -0 0 0 0 0 0 0 0 0 0 0 0 0 0 0 0 0 0 0 0 0 0 0
-0 -0 -0 -0 -0 -0 -0 -0 -0 -0 -0 0 0 0 -0 -0 0 -0 0 0 0 0 0 -0 0 0 0 0 0 0 0 0 0 0 0 0 0 0 0 0 0 0 0 0 0 0 0
-0 -0 -0 -0 -0 -0 -0 -0 -0 -0 -0 0 0 0 0 -0 -0 0 0 0 0 0 0 0 0 0 0 0 0 0 0 0 0 0 0 0 0 0 0 0 0 0 0 0 0 0 0
-0 -0 -0 -0 -0 -0 -0 -0 -0 -0 -0 0 0 0 0 0 0 0 0 0 0 0 0 0 0 0 0 0 0 0 0 0 0 0 0 0 0 0 0 0 0 0 0 0 0 0 0
-0 -0 -0 -0 -0 -0 -0 -0 -0 -0 -0 -0 -0 0 0 0 0 0 0 0 0 0 0 0 0 0 0 0 0 0 0 0 0 0 0 0 0 0 0 0 0 0 0 0 0 0 0
-0 -0 -0 -0 -0 -0 -0 -0 -0 -0 -0 -0 -0 0 0 0 0 0 0 0 0 0 0 0 0 0 0 0 0 0 0 0 0 0 0 0 0 0 0 0 0 0 0 0 0 -0 0
-0 -0 -0 -0 -0 -0 -0 -0 -0 -0 -0 0 -0 0 0 0 0 0 0 0 0 0 0 0 0 0 0 0 0 0 0 0 0 0 0 0 0 0 0 0 0 -0 0 0 0 0 -0
-0 -0 -0 -0 -0 -0 -0 -0 -0 -0 -0 0 0 0 0 0 0 0 0 0 0 0 0 0 0 0 0 0 0 0 0 0 0 0 0 0 0 0 -0 0 0 0 0 0 0 0 0
-0 -0 -0 -0 -0 -0 -0 -0 -0 -0 -0 0 0 0 0 0 0 0 0 0 0 0 0 0 0 0 0 0 0 0 0 0 0 0 0 0 0 -0 -0 0 0 0 0 0 0 0 0
0 -0 -0 -0 -0 -0 -0 -0 -0 -0 -0 0 0 0 0 0 0 0 0 0 0 0 0 0 0 0 0 -0 0 0 0 0 0 0 0 0 0 0 -0 -0 0 0 -0 0 0 0 0
0 -0 -0 -0 0 -0 -0 -0 -0 -0 -0 0 0 0 0 0 0 0 0 0 0 0 0 0 0 0 0 0 0 0 0 0 0 0 0 0 0 0 0 -0 0 0 0 0 0 0 -0
-0 -0 0 0 0 0 -0 -0 -0 -0 -0 0 0 0 0 0 0 0 0 0 0 0 0 0 0 0 0 -0 0 0 0 0 0 0 0 0 0 0 0 0 0 0 0 0 0 -0 0
0 -0 -0 0 0 0 -0 -0 -0 -0 0 0 0 0 0 0 0 0 0 0 0 0 0 0 0 0 0 0 0 0 0 0 0 0 0 0 0 0 0 0 0 0 0 0 0 0 0
0 0 0 0 0 -0 -0 0 0 0 0 0 0 0 0 0 0 0 0 0 0 0 0 0 0 0 0 0 0 0 0 0 0 0 0 0 0 0 0 0 0 0 0 0 0 0 0
0 0 0 0 -0 -0 -0 -0 0 0 0 0 0 0 0 0 0 0 0 0 0 0 0 0 0 0 0 0 0 0 -0 0 0 0 0 0 0 0 0 0 0 0 0 0 0 0 0
Wind_Speed_500mb
23 25 25 26 26 25 25 25 25 24 24 25 24 25 25 25 23 23 22 21 22 21 22 23 20 21 17 15 25 11 16 15 16 21 30 33 37 35 32 33 36 38 38 43 53 34 18
27 27 28 28 29 29 28 28 26 24 23 24 24 24 25 23 22 20 20 21 21 21 21 20 18 18 13 29 6 4 3 4 12 22 26 30 28 32 32 36 27 34 37 53 30 40 37
30 30 31 30 29 29 29 28 27 25 24 24 24 23 23 22 20 19 19 20 21 19 17 16 14 16 21 28 8 7 4 7 15 19 21 25 23 19 30 25 32 35 30 37 31 33 38
35 34 33 31 31 29 28 27 25 24 24 23 22 22 22 20 18 17 18 20 19 17 16 17 15 11 17 8 10 15 15 10 13 14 16 20 24 31 37 30 11 30 34 33 42 40 37
38 37 34 32 30 30 28 26 24 23 23 22 20 20 20 18 15 15 17 18 20 22 22 14 8 7 11 5 5 9 21 17 13 15 15 15 20 30 29 31 28 28 31 41 41 45 32
40 40 38 34 30 28 27 25 22 22 22 21 19 17 17 14 10 11 13 18 18 12 9 8 11 14 15 11 2 5 18 17 15 14 17 21 22 24 26 26 30 29 35 32 34 35 33
42 41 41 37 31 26 23 21 20 20 20 19 16 14 14 9 4 4 13 14 10 1 13 18 11 21 18 10 9 9 19 21 18 20 25 30 23 30 36 36 39 41 31 24 30 22 40
46 45 43 41 35 26 20 18 17 17 16 15 13 11 10 6 6 2 13 11 16 13 15 1 3 5 9 15 10 13 17 23 24 27 28 12 27 32 33 28 24 33 31 34 32 31 25
49 48 47 43 38 27 20 17 13 12 11 10 9 8 6 6 9 5 4 10 13 18 17 15 10 19 8 18 6 15 20 28 28 27 30 27 37 2 14 23 27 31 34 34 35 29 35
51 51 50 43 40 29 21 17 13 10 9 7 6 5 4 6 3 4 5 16 22 10 12 19 10 13 8 5 7 8 14 27 21 24 23 27 27 25 21 27 31 34 34 36 36 34 33
51 53 54 45 40 33 22 17 13 10 8 6 4 1 7 13 6 11 11 22 12 4 5 11 19 4 7 9 19 13 7 20 28 33 11 35 18 17 24 32 31 34 33 37 33 36 42
52 53 55 51 40 36 25 19 15 13 11 10 9 7 6 1 7 11 20 20 7 14 7 9 13 16 7 8 14 18 6 11 32 26 34 35 40 25 28 30 27 24 28 38 33 30 35
53 54 54 53 43 35 25 21 21 20 17 15 15 12 8 4 9 20 20 10 15 9 8 13 17 22 9 18 9 22 20 15 20 22 32 6 37 39 28 29 30 38 32 27 33 32 35
51 53 53 52 46 32 23 16 15 18 21 21 17 11 18 14 20 17 13 19 8 8 19 20 20 22 6 16 26 17 31 5 9 30 27 32 28 25 43 32 36 43 30 24 47 37 39
47 50 52 52 49 37 22 12 6 7 9 10 12 20 15 20 20 14 22 9 13 13 17 20 30 12 17 19 20 32 25 13 17 24 25 28 38 49 30 35 35 36 33 40 36 39 40
44 47 50 50 50 45 28 14 8 6 8 9 12 7 18 21 18 21 1 11 9 15 20 23 18 17 26 25 23 24 22 21 21 26 34 33 39 35 50 50 39 45 38 41 30 42 49
44 45 47 49 50 46 38 23 11 5 5 7 13 10 19 17 16 13 13 12 10 15 20 16 20 18 20 20 23 21 12 23 24 27 33 31 25 34 37 35 40 37 33 31 33 27 31
44 45 46 48 47 47 44 31 13 6 3 10 14 5 22 14 3 6 14 9 5 12 16 10 12 15 15 20 16 14 18 18 21 30 35 21 15 30 36 43 38 35 40 23 13 13 18
46 45 46 47 47 47 44 37 20 7 3 9 9 7 16 14 6 12 8 12 11 11 14 11 11 10 13 13 11 13 12 16 22 27 22 23 13 29 29 27 7 36 31 17 17 28 38
50 47 46 47 47 47 45 41 28 8 5 5 12 5 10 19 16 8 8 4 5 7 9 7 7 7 14 15 6 13 20 16 31 28 12 11 23 30 30 40 35 35 42 43 12 12 23
54 50 47 47 47 47 47 43 34 14 2 5 8 8 7 6 13 9 3 2 2 4 2 7 8 10 13 11 18 9 25 27 29 11 20 10 24 35 41 43 40 46 43 43 31 27 11
58 55 50 46 47 47 47 47 41 23 12 6 13 5 7 10 3 3 3 5 8 4 8 4 9 15 13 12 15 26 26 22 13 20 18 17 16 30 38 42 33 36 40 36 28 29 20
60 59 56 50 46 45 45 44 42 34 26 12 8 5 12 6 7 11 6 2 3 8 7 8 11 17 15 20 28 28 22 17 16 13 17 17 23 25 33 36 33 15 19 30 30 23 21
61 62 60 58 51 45 43 41 38 34 29 20 9 8 16 4 8 8 2 5 5 4 11 7 11 14 20 27 25 16 21 13 13 13 12 15 27 13 19 29 11 3 8 9 17 19 25
59 61 64 63 58 51 42 38 34 30 24 19 17 10 14 7 7 11 9 7 8 9 16 11 10 13 20 26 21 18 18 25 12 11 5 15 18 16 8 19 5 7 12 9 8 6 8
61 60 63 65 63 57 49 38 33 27 21 12 18 12 16 21 6 2 10 8 17 9 13 18 7 12 18 24 15 12 11 10 9 10 12 18 20 19 18 17 7 5 17 14 7 6 7
63 58 61 65 66 62 54 45 34 28 22 16 11 14 10 25 10 8 11 9 3 11 13 4 3 14 13 17 13 6 14 4 9 17 15 16 13 15 13 16 6 18 17 19 7 8 11
60 59 60 64 65 62 59 50 39 29 24 17 14 17 10 23 14 13 14 14 10 11 14 11 13 12 18 14 8 11 11 11 10 22 7 12 13 15 10 15 6 21 10 11 7 7 9
59 58 62 65 65 64 61 55 44 32 23 19 10 13 13 18 28 14 19 22 17 12 14 6 7 4 14 12 10 8 17 14 22 15 6 8 4 9 9 9 7 9 8 4 6 4 5
Wind_Direction_500mb
333 329 325 320 316 313 309 308 307 309 313 313 316 318 322 320 316 313 307 303 298 300 303 304 307 303 312 262 256 294 249 263 235 200 210 212 216 226 237 239 243 237 238 246 253 270 233
334 328 322 317 312 308 306 304 305 306 309 310 316 324 325 322 315 309 309 302 303 307 305 304 308 300 297 265 300 277 176 241 201 194 210 211 221 229 251 253 253 244 245 254 242 234 243
337 328 320 314 310 307 302 299 301 303 305 308 313 323 324 324 316 311 308 308 308 307 305 308 305 305 274 252 260 201 186 235 211 195 217 221 240 239 228 253 245 254 262 238 236 236 243
343 334 325 316 309 304 301 300 300 299 299 302 308 319 324 324 316 316 312 310 306 301 299 301 295 307 268 231 225 226 227 219 197 215 229 230 232 247 253 249 248 232 236 250 214 219 224
356 348 337 325 315 307 302 298 297 294 292 296 303 311 321 320 320 318 311 310 303 297 296 289 320 239 254 179 230 216 209 210 212 216 226 239 224 239 245 253 240 211 242 222 256 182 218
7 1 353 341 328 316 305 297 294 292 290 293 298 306 315 315 319 319 321 312 305 303 313 277 260 251 241 212 0 214 197 215 207 205 210 213 212 225 238 236 245 227 213 250 225 179 204
7 4 1 354 341 329 319 306 296 292 291 292 296 295 306 302 299 352 351 346 321 157 231 286 333 288 275 257 257 220 199 198 220 216 231 194 220 225 237 228 263 289 297 285 260 233 196
9 6 3 360 352 341 330 318 307 300 296 293 292 292 295 266 221 247 35 340 9 343 302 52 314 319 270 224 240 201 194 211 213 245 216 218 236 257 237 261 257 267 265 268 278 280 265
12 9 5 3 1 353 348 341 332 320 308 303 296 290 279 226 210 248 321 338 334 324 257 110 86 39 71 164 257 162 199 216 255 253 262 250 278 28 284 258 250 253 260 266 265 260 235
15 12 10 8 9 7 4 3 359 349 335 323 310 286 220 172 152 263 251 327 324 299 258 95 38 46 137 227 180 5 230 260 262 272 297 257 272 274 233 245 257 257 255 248 263 269 258
17 16 15 15 16 16 15 17 18 14 7 14 28 131 169 189 224 285 296 323 315 296 211 53 52 53 179 299 333 105 300 258 263 288 232 279 209 235 247 254 252 261 268 268 258 246 261
19 19 19 20 21 23 29 38 45 46 47 58 69 84 122 276 291 284 310 308 321 238 84 53 35 348 10 6 13 346 215 228 269 280 275 261 282 287 277 289 289 286 276 262 260 267 254
19 20 20 21 23 25 35 51 54 52 59 69 78 83 88 157 305 300 299 276 241 5 339 36 348 330 336 346 329 338 332 345 1 327 291 315 276 245 237 245 267 254 244 256 245 233 245
18 19 20 20 22 24 32 42 56 61 70 74 71 59 34 6 320 304 291 254 27 21 12 353 322 310 247 10 334 340 319 268 60 345 324 304 313 340 6 324 327 311 296 271 280 276 275
16 18 19 19 20 20 20 22 31 69 75 38 17 37 26 348 353 322 273 14 26 12 351 335 315 345 335 341 356 321 316 348 36 5 346 313 293 317 316 278 300 287 284 291 303 291 288
15 17 19 20 18 17 14 4 349 289 286 309 329 270 11 351 332 301 294 51 94 25 333 334 331 335 326 342 330 325 310 64 356 6 346 314 306 306 305 306 290 279 275 284 274 275 268
15 16 18 19 17 15 12 4 346 324 303 303 323 248 353 351 322 313 22 63 83 49 359 347 343 327 340 348 323 322 1 64 16 352 332 314 298 304 309 288 305 314 309 313 281 308 290
16 15 15 17 18 15 13 9 351 314 282 334 292 299 351 343 170 14 49 25 345 20 13 8 3 332 1 331 328 333 349 4 353 345 323 333 308 292 295 297 280 278 296 7 319 309 277
16 15 14 15 16 16 13 11 4 340 295 314 304 13 357 327 336 98 107 92 51 22 30 6 15 353 345 313 310 358 359 350 328 333 352 328 304 308 298 306 320 329 312 286 309 305 279
17 15 14 14 15 15 16 13 11 358 334 336 291 242 100 53 57 357 124 53 121 30 63 15 348 322 322 321 278 291 300 335 328 312 13 289 286 294 294 302 309 302 299 292 226 251 293
18 16 13 13 14 14 16 18 16 22 36 4 327 68 2 22 68 62 32 304 351 32 98 357 192 354 339 312 319 309 335 329 322 92 289 306 308 301 301 309 299 281 330 313 264 202 243
20 18 14 13 12 13 15 18 24 32 51 26 338 318 93 91 18 204 145 36 352 42 308 79 321 335 308 298 346 314 322 321 313 341 330 345 303 307 305 288 324 331 13 343 345 344 304
20 18 16 12 11 12 13 16 22 32 53 47 33 33 294 131 174 269 67 40 22 300 155 299 323 311 305 355 315 303 293 293 310 306 343 319 321 313 301 341 317 47 340 331 353 356 349
19 18 16 15 11 8 10 13 17 24 43 35 4 322 284 122 278 15 179 257 272 298 304 298 297 305 347 314 295 251 247 240 246 271 256 306 310 329 309 312 340 16 257 306 330 6 359
17 17 16 14 12 8 4 5 8 13 21 43 358 338 311 292 319 184 220 249 256 207 253 284 319 319 314 297 268 243 214 221 207 286 295 281 296 317 283 343 81 65 6 340 3 291 305
15 14 14 11 9 7 4 357 356 358 4 38 330 338 303 304 201 45 231 244 284 246 218 228 255 300 300 281 261 261 309 343 275 315 219 290 248 255 313 331 353 247 353 136 95 255 211
11 9 8 6 4 1 1 357 348 344 343 343 321 330 308 290 230 205 259 307 280 268 267 211 311 288 260 285 297 326 313 178 284 284 335 315 300 289 319 310 84 52 330 123 310 5 3
7 7 5 1 360 358 354 352 348 336 329 330 290 302 325 298 273 242 245 243 229 244 290 55 254 214 269 310 320 353 275 344 272 291 297 302 311 304 335 303 294 30 312 340 339 2 12
2 1 1 359 358 355 350 344 341 334 316 311 304 302 291 267 281 267 251 244 249 265 289 171 335 268 4 300 334 311 308 262 277 288 207 279 313 306 293 262 314 299 277 258 259 223 300
Wind_Speed_850mb
23 25 25 26 26 25 25 25 25 24 24 25 24 25 25 25 23 23 22 21 22 21 22 23 20 21 17 15 25 11 16 15 16 21 30 33 37 35 32 33 36 38 38 43 53 34 18
27 27 28 28 29 29 28 28 26 24 23 24 24 24 25 23 22 20 20 21 21 21 21 20 18 18 13 29 6 4 3 4 12 22 26 30 28 32 32 36 27 34 37 53 30 40 37
30 30 31 30 29 29 29 28 27 25 24 24 24 23 23 22 20 19 19 20 21 19 17 16 14 16 21 28 8 7 4 7 15 19 21 25 23 19 30 25 32 35 30 37 31 33 38
35 34 33 31 31 29 28 27 25 24 24 23 22 22 22 20 18 17 18 20 19 17 16 17 15 11 17 8 10 15 15 10 13 14 16 20 24 31 37 30 11 30 34 33 42 40 37
38 37 34 32 30 30 28 26 24 23 23 22 20 20 20 18 15 15 17 18 20 22 22 14 8 7 11 5 5 9 21 17 13 15 15 15 20 30 29 31 28 28 31 41 41 45 32
40 40 38 34 30 28 27 25 22 22 22 21 19 17 17 14 10 11 13 18 18 12 9 8 11 14 15 11 2 5 18 17 15 14 17 21 22 24 26 26 30 29 35 32 34 35 33
42 41 41 37 31 26 23 21 20 20 20 19 16 14 14 9 4 4 13 14 10 1 13 18 11 21 18 10 9 9 19 21 18 20 25 30 23 30 36 36 39 41 31 24 30 22 40
46 45 43 41 35 26 20 18 17 17 16 15 13 11 10 6 6 2 13 11 16 13 15 1 3 5 9 15 10 13 17 23 24 27 28 12 27 32 33 28 24 33 31 34 32 31 25
49 48 47 43 38 27 20 17 13 12 11 10 9 8 6 6 9 5 4 10 13 18 17 15 10 19 8 18 6 15 20 28 28 27 30 27 37 2 14 23 27 31 34 34 35 29 35
51 51 50 43 40 29 21 17 13 10 9 7 6 5 4 6 3 4 5 16 22 10 12 19 10 13 8 5 7 8 14 27 21 24 23 27 27 25 21 27 31 34 34 36 36 34 33
51 53 54 45 40 33 22 17 13 10 8 6 4 1 7 13 6 11 11 22 12 4 5 11 19 4 7 9 19 13 7 20 28 33 11 35 18 17 24 32 31 34 33 37 33 36 42
52 53 55 51 40 36 25 19 15 13 11 10 9 7 6 1 7 11 20 20 7 14 7 9 13 16 7 8 14 18 6 11 32 26 34 35 40 25 28 30 27 24 28 38 33 30 35
53 54 54 53 43 35 25 21 21 20 17 15 15 12 8 4 9 20 20 10 15 9 8 13 17 22 9 18 9 22 20 15 20 22 32 6 37 39 28 29 30 38 32 27 33 32 35
51 53 53 52 46 32 23 16 15 18 21 21 17 11 18 14 20 17 13 19 8 8 19 20 20 22 6 16 26 17 31 5 9 30 27 32 28 25 43 32 36 43 30 24 47 37 39
47 50 52 52 49 37 22 12 6 7 9 10 12 20 15 20 20 14 22 9 13 13 17 20 30 12 17 19 20 32 25 13 17 24 25 28 38 49 30 35 35 36 33 40 36 39 40
44 47 50 50 50 45 28 14 8 6 8 9 12 7 18 21 18 21 1 11 9 15 20 23 18 17 26 25 23 24 22 21 21 26 34 33 39 35 50 50 39 45 38 41 30 42 49
44 45 47 49 50 46 38 23 11 5 5 7 13 10 19 17 16 13 13 12 10 15 20 16 20 18 20 20 23 21 12 23 24 27 33 31 25 34 37 35 40 37 33 31 33 27 31
44 45 46 48 47 47 44 31 13 6 3 10 14 5 22 14 3 6 14 9 5 12 16 10 12 15 15 20 16 14 18 18 21 30 35 21 15 30 36 43 38 35 40 23 13 13 18
46 45 46 47 47 47 44 37 20 7 3 9 9 7 16 14 6 12 8 12 11 11 14 11 11 10 13 13 11 13 12 16 22 27 22 23 13 29 29 27 7 36 31 17 17 28 38
50 47 46 47 47 47 45 41 28 8 5 5 12 5 10 19 16 8 8 4 5 7 9 7 7 7 14 15 6 13 20 16 31 28 12 11 23 30 30 40 35 35 42 43 12 12 23
54 50 47 47 47 47 47 43 34 14 2 5 8 8 7 6 13 9 3 2 2 4 2 7 8 10 13 11 18 9 25 27 29 11 20 10 24 35 41 43 40 46 43 43 31 27 11
58 55 50 46 47 47 47 47 41 23 12 6 13 5 7 10 3 3 3 5 8 4 8 4 9 15 13 12 15 26 26 22 13 20 18 17 16 30 38 42 33 36 40 36 28 29 20
60 59 56 50 46 45 45 44 42 34 26 12 8 5 12 6 7 11 6 2 3 8 7 8 11 17 15 20 28 28 22 17 16 13 17 17 23 25 33 36 33 15 19 30 30 23 21
61 62 60 58 51 45 43 41 38 34 29 20 9 8 16 4 8 8 2 5 5 4 11 7 11 14 20 27 25 16 21 13 13 13 12 15 27 13 19 29 11 3 8 9 17 19 25
59 61 64 63 58 51 42 38 34 30 24 19 17 10 14 7 7 11 9 7 8 9 16 11 10 13 20 26 21 18 18 25 12 11 5 15 18 16 8 19 5 7 12 9 8 6 8
61 60 63 65 63 57 49 38 33 27 21 12 18 12 16 21 6 2 10 8 17 9 13 18 7 12 18 24 15 12 11 10 9 10 12 18 20 19 18 17 7 5 17 14 7 6 7
63 58 61 65 66 62 54 45 34 28 22 16 11 14 10 25 10 8 11 9 3 11 13 4 3 14 13 17 13 6 14 4 9 17 15 16 13 15 13 16 6 18 17 19 7 8 11
60 59 60 64 65 62 59 50 39 29 24 17 14 17 10 23 14 13 14 14 10 11 14 11 13 12 18 14 8 11 11 11 10 22 7 12 13 15 10 15 6 21 10 11 7 7 9
59 58 62 65 65 64 61 55 44 32 23 19 10 13 13 18 28 14 19 22 17 12 14 6 7 4 14 12 10 8 17 14 22 15 6 8 4 9 9 9 7 9 8 4 6 4 5
Wind_Direction_850mb
333 329 325 320 316 313 309 308 307 309 313 313 316 318 322 320 316 313 307 303 298 300 303 304 307 303 312 262 256 294 249 263 235 200 210 212 216 226 237 239 243 237 238 246 253 270 233
334 328 322 317 312 308 306 304 305 306 309 310 316 324 325 322 315 309 309 302 303 307 305 304 308 300 297 265 300 277 176 241 201 194 210 211 221 229 251 253 253 244 245 254 242 234 243
337 328 320 314 310 307 302 299 301 303 305 308 313 323 324 324 316 311 308 308 308 307 305 308 305 305 274 252 260 201 186 235 211 195 217 221 240 239 228 253 245 254 262 238 236 236 243
343 334 325 316 309 304 301 300 300 299 299 302 308 319 324 324 316 316 312 310 306 301 299 301 295 307 268 231 225 226 227 219 197 215 229 230 232 247 253 249 248 232 236 250 214 219 224
356 348 337 325 315 307 302 298 297 294 292 296 303 311 321 320 320 318 311 310 303 297 296 289 320 239 254 179 230 216 209 210 212 216 226 239 224 239 245 253 240 211 242 222 256 182 218
7 1 353 341 328 316 305 297 294 292 290 293 298 306 315 315 319 319 321 312 305 303 313 277 260 251 241 212 0 214 197 215 207 205 210 213 212 225 238 236 245 227 213 250 225 179 204
7 4 1 354 341 329 319 306 296 292 291 292 296 295 306 302 299 352 351 346 321 157 231 286 333 288 275 257 257 220 199 198 220 216 231 194 220 225 237 228 263 289 297 285 260 233 196
9 6 3 360 352 341 330 318 307 300 296 293 292 292 295 266 221 247 35 340 9 343 302 52 314 319 270 224 240 201 194 211 213 245 216 218 236 257 237 261 257 267 265 268 278 280 265
12 9 5 3 1 353 348 341 332 320 308 303 296 290 279 226 210 248 321 338 334 324 257 110 86 39 71 164 257 162 199 216 255 253 262 250 278 28 284 258 250 253 260 266 265 260 235
15 12 10 8 9 7 4 3 359 349 335 323 310 286 220 172 152 263 251 327 324 299 258 95 38 46 137 227 180 5 230 260 262 272 297 257 272 274 233 245 257 257 255 248 263 269 258
17 16 15 15 16 16 15 17 18 14 7 14 28 131 169 189 224 285 296 323 315 296 211 53 52 53 179 299 333 105 300 258 263 288 232 279 209 235 247 254 252 261 268 268 258 246 261
19 19 19 20 21 23 29 38 45 46 47 58 69 84 122 276 291 284 310 308 321 238 84 53 35 348 10 6 13 346 215 228 269 280 275 261 282 287 277 289 289 286 276 262 260 267 254
19 20 20 21 23 25 35 51 54 52 59 69 78 83 88 157 305 300 299 276 241 5 339 36 348 330 336 346 329 338 332 345 1 327 291 315 276 245 237 245 267 254 244 256 245 233 245
18 19 20 20 22 24 32 42 56 61 70 74 71 59 34 6 320 304 291 254 27 21 12 353 322 310 247 10 334 340 319 268 60 345 324 304 313 340 6 324 327 311 296 271 280 276 275
16 18 19 19 20 20 20 22 31 69 75 38 17 37 26 348 353 322 273 14 26 12 351 335 315 345 335 341 356 321 316 348 36 5 346 313 293 317 316 278 300 287 284 291 303 291 288
15 17 19 20 18 17 14 4 349 289 286 309 329 270 11 351 332 301 294 51 94 25 333 334 331 335 326 342 330 325 310 64 356 6 346 314 306 306 305 306 290 279 275 284 274 275 268
15 16 18 19 17 15 12 4 346 324 303 303 323 248 353 351 322 313 22 63 83 49 359 347 343 327 340 348 323 322 1 64 16 352 332 314 298 304 309 288 305 314 309 313 281 308 290
16 15 15 17 18 15 13 9 351 314 282 334 292 299 351 343 170 14 49 25 345 20 13 8 3 332 1 331 328 333 349 4 353 345 323 333 308 292 295 297 280 278 296 7 319 309 277
16 15 14 15 16 16 13 11 4 340 295 314 304 13 357 327 336 98 107 92 51 22 30 6 15 353 345 313 310 358 359 350 328 333 352 328 304 308 298 306 320 329 312 286 309 305 279
17 15 14 14 15 15 16 13 11 358 334 336 291 242 100 53 57 357 124 53 121 30 63 15 348 322 322 321 278 291 300 335 328 312 13 289 286 294 294 302 309 302 299 292 226 251 293
18 16 13 13 14 14 16 18 16 22 36 4 327 68 2 22 68 62 32 304 351 32 98 357 192 354 339 312 319 309 335 329 322 92 289 306 308 301 301 309 299 281 330 313 264 202 243
20 18 14 13 12 13 15 18 24 32 51 26 338 318 93 91 18 204 145 36 352 42 308 79 321 335 308 298 346 314 322 321 313 341 330 345 303 307 305 288 324 331 13 343 345 344 304
20 18 16 12 11 12 13 16 22 32 53 47 33 33 294 131 174 269 67 40 22 300 155 299 323 311 305 355 315 303 293 293 310 306 343 319 321 313 301 341 317 47 340 331 353 356 349
19 18 16 15 11 8 10 13 17 24 43 35 4 322 284 122 278 15 179 257 272 298 304 298 297 305 347 314 295 251 247 240 246 271 256 306 310 329 309 312 340 16 257 306 330 6 359
17 17 16 14 12 8 4 5 8 13 21 43 358 338 311 292 319 184 220 249 256 207 253 284 319 319 314 297 268 243 214 221 207 286 295 281 296 317 283 343 81 65 6 340 3 291 305
15 14 14 11 9 7 4 357 356 358 4 38 330 338 303 304 201 45 231 244 284 246 218 228 255 300 300 281 261 261 309 343 275 315 219 290 248 255 313 331 353 247 353 136 95 255 211
11 9 8 6 4 1 1 357 348 344 343 343 321 330 308 290 230 205 259 307 280 268 267 211 311 288 260 285 297 326 313 178 284 284 335 315 300 289 319 310 84 52 330 123 310 5 3
7 7 5 1 360 358 354 352 348 336 329 330 290 302 325 298 273 242 245 243 229 244 290 55 254 214 269 310 320 353 275 344 272 291 297 302 311 304 335 303 294 30 312 340 339 2 12
2 1 1 359 358 355 350 344 341 334 316 311 304 302 291 267 281 267 251 244 249 265 289 171 335 268 4 300 334 311 308 262 277 288 207 279 313 306 293 262 314 299 277 258 259 223 300